"Pseudo-MPEC" for C0GV5A5

Created 2023 Mar 20 10:22:07 UT using Find_Orb

Click here for an explanation of pseudo-MPECs

 
 Astrometry: 
     C0GV5A5* C2023 03 18d'[DO@Y2;waiKdAstrometryt!3h]khSqk%Q/h^MI@qR:QdUNLy6V00
     C0GV5A5  C2023 03 18spk,^)Q\B'(NjJ2t,5L@7Vo=UI-NsS4redacted;1\?7B4y$biNNV00
     C0GV5A5  C2023 03 18-5w)5=tEf7iD(bwpM36e+click2y*6;NC5AX2$n*x9J5nn3P0eG^V00
     C0GV5A5  C2023 03 18x7I*I49qW:RRMVuT4MC\AWg+B4it%8$Nnmge/xZ;+-Za(\ppc9-^V00
     C0GV5A5 KC2023 03 18.41422 12 08 53.87 +29 48 13.0    ~3ICM 21.6 RVNEOCP691
     C0GV5A5 KC2023 03 18.43123 12 08 57.00 +29 49 09.2    ~3ICM 21.4 RVNEOCP691
     C0GV5A5 1C2023 03 19.16528 12 11 36.63 +30 31 11.0    ~3J8M 22.2 VXNEOCP033
     C0GV5A5 1C2023 03 19.16882 12 11 37.39 +30 31 22.7    ~3J8M 22.2 VXNEOCP033
     C0GV5A5 1C2023 03 19.17236 12 11 38.08 +30 31 34.2    ~3J8M 21.6 VXNEOCP033
     C0GV5A5 mC2023 03 19JtjFbYAgLE;tl\:4t=?here[Q[c4Q3QD@6o:ZoV96C?\8:NNT*cNV00
     C0GV5A5 mC2023 03 19\/S=LAH_MGZcpNCe+6NV^gJf;$KX,M;oZXAV[Z)(nFxCCcNYeVi#V00
     C0GV5A5 mC2023 03 19w9DmqoK#vfrVymfZ(ovo:s8#!LiXoF/cjZ_(^[H0lGXX[`(w6w70V00
     C0GV5A5 mC2023 03 19joep8Ce^SN)//h7G$`WJa5\COtffP`5;VM9AeFpfornUY7mo-7snV00
     C0GV5A5 KC2023 03 20MUkVt@Bj,LPAh`H[[3'+\6dM)DBj\;9cexplanationJ*?DJh0hrH21
     C0GV5A5 KC2023 03 20Q0XSk:gLE#cdPF.L7jAPSk4Mj9i2IW+UB=.31u:1R#u(I].:NOD[H21
     C0GV5A5 KC2023 03 20uY.?rwQA/6PQ._?4XPg5%I9cXSkaxL615/]faXuQ/_nyY(W/IG5sH21
     C0GV5A5 KC2023 03 20.35548 12 16 22.63 +31 44 15.1    ~3K9b 20.8 RVNEOCP691
     C0GV5A5 KC2023 03 20.36625 12 16 24.97 +31 44 54.8    ~3K9b 21.1 RVNEOCP691
     C0GV5A5 KC2023 03 20.37703 12 16 27.28 +31 45 34.4    ~3K9b 21.1 RVNEOCP691

Station data:
(033) Karl Schwarzschild Observatory, Tautenburg  (N50.980137 E11.711240)
   Germany.  Observers S. Melnikov, C. Hoegner, B. Stecklum. Measurer B.
   Stecklum. 1.34-m f/3 Schmidt + CCD.
(691) Steward Observatory, Kitt Peak - Spacewatch  (N31.962174 W111.600327)
   US/Arizona.  Observer J. V. Scotti. 0.9-m f/3 reflector + CCD.
(H21) Astronomical Research Observatory, Westfield  (N39.483054 W87.968270)
   US/Illinois.  Observer R. Holmes. Measurers S. Foglia, L. Buzzi, T.
   Linder, R. Holmes. 0.76-m f/3.0 astrograph + CCD0.81-m f/4.0 astrograph +
   CCD0.61-m f/4.5 astrograph + CCD0.40-m f/5.32 astrograph + CCD.
(V00) Kitt Peak-Bok  (N31.963125 W111.600190)  US/Arizona.  Observers T. A.
   Pruyne, B. M. Africano, E. J. Christensen, G. A. Farneth, D. C. Fuls, A.
   R. Gibbs, A. D. Grauer, H. Gröller, J. A. Johnson, R. A. Kowalski, S. M.
   Larson, G. J. Leonard, D. Rankin, R. L. Seaman, F. C. Shelly, K. W.
   Wierzchoś. 2.25-m reflector + CCD.

Orbital elements:  C0GV5A5
   Perihelion 2023 May 3.13127 +/- 0.0124 TT =  3:09:01 (JD 2460067.63127)
Epoch 2023 Mar 20.0 TT = JDT 2460023.5   Earth MOID: 0.0251   Ma: 0.0070
M 337.18135451 +/- 0.06             (J2000 ecliptic)             AutoNEOCP
n   0.51706301 +/- 0.00139          Peri.  118.90716 +/- 0.19
a   1.53735348 +/- 0.00276          Node   108.03064 +/- 0.16
e   0.3611247 +/- 0.00122           Incl.    2.74850 +/- 0.008
P   1.91/696.23d           H 25.35  G  0.15   U  8.3
q 0.98217706 +/- 0.000184    Q 2.09252989 +/- 0.00563
From 19 observations 2023 Mar. 18-20; mean residual 0".28
Residuals in arcseconds: 
230318 V00  .08+  .14+    230319 033  .05+  .22+    230320 H21  .17-  .35-    
230318 V00  .00   .43+    230319 033  .85-  .26-    230320 H21  .04-  .00     
230318 V00  .48-  .11-    230319 V00  .22-  .20+    230320 691  .20-  .18+    
230318 V00  .12+  .19+    230319 V00  .34+  .26+    230320 691  .29+  .03+    
230318 691  .07+  .47-    230319 V00  .28+  .17+    230320 691  .26+  .09-    
230318 691  .52+  .36-    230319 V00  .23-  .06-    
230319 033  .01+  .50+    230320 H21  .11+  .11-    

Ephemerides (geocentric):
Date (UTC) HH   RA             Dec           delta  r     elong  mag " sig PA
---- --------  ------------   ------------  ------ ------ -----  --- --------
2023 03 20 10  12 16 39.071   +31 48 05.48  .09593 1.0784 148.2 21.7 .053 124
2023 03 20 11  12 16 49.615   +31 50 42.29  .09578 1.0783 148.1 21.7 .055 119
2023 03 20 12  12 17 00.200   +31 53 19.40  .09563 1.0781 148.1 21.7 .057 115
2023 03 20 13  12 17 10.827   +31 55 56.82  .09548 1.0779 148.0 21.7 .059 111
2023 03 20 14  12 17 21.495   +31 58 34.54  .09533 1.0778 147.9 21.7 .061 107
2023 03 20 15  12 17 32.204   +32 01 12.58  .09518 1.0776 147.9 21.7 .064 103
2023 03 20 16  12 17 42.956   +32 03 50.93  .09504 1.0774 147.8 21.7 .067  99
2023 03 20 17  12 17 53.750   +32 06 29.59  .09489 1.0773 147.8 21.7 .071  96
2023 03 20 18  12 18 04.586   +32 09 08.55  .09474 1.0771 147.7 21.7 .075  93
2023 03 20 19  12 18 15.465   +32 11 47.83  .09459 1.0769 147.6 21.7 .079  90
2023 03 20 20  12 18 26.387   +32 14 27.42  .09444 1.0768 147.6 21.7 .083  87
2023 03 20 21  12 18 37.352   +32 17 07.33  .09430 1.0766 147.5 21.7 .087  84
2023 03 20 22  12 18 48.360   +32 19 47.55  .09415 1.0764 147.4 21.7 .092  82
2023 03 20 23  12 18 59.412   +32 22 28.08  .09400 1.0763 147.4 21.7 .097  80
2023 03 21 00  12 19 10.508   +32 25 08.92  .09386 1.0761 147.3 21.7 .103  78
2023 03 21 01  12 19 21.647   +32 27 50.08  .09371 1.0759 147.3 21.7 .108  76
2023 03 21 02  12 19 32.831   +32 30 31.55  .09356 1.0758 147.2 21.7 .114  74
2023 03 21 03  12 19 44.060   +32 33 13.34  .09342 1.0756 147.1 21.7 .120  73
2023 03 21 04  12 19 55.334   +32 35 55.44  .09327 1.0754 147.1 21.7 .126  71
2023 03 21 05  12 20 06.652   +32 38 37.86  .09312 1.0753 147.0 21.7 .133  70
2023 03 21 06  12 20 18.016   +32 41 20.60  .09298 1.0751 147.0 21.7 .139  69
2023 03 21 07  12 20 29.426   +32 44 03.66  .09283 1.0749 146.9 21.7 .146  67
2023 03 21 08  12 20 40.881   +32 46 47.03  .09269 1.0748 146.8 21.7 .153  66
2023 03 21 09  12 20 52.382   +32 49 30.72  .09254 1.0746 146.8 21.7 .160  65
2023 03 21 10  12 21 03.930   +32 52 14.73  .09239 1.0744 146.7 21.7 .167  64
2023 03 21 11  12 21 15.524   +32 54 59.06  .09225 1.0743 146.6 21.7 .175  63
2023 03 21 12  12 21 27.165   +32 57 43.71  .09210 1.0741 146.6 21.7 .183  62
2023 03 21 13  12 21 38.853   +33 00 28.68  .09196 1.0740 146.5 21.7 .191  61
2023 03 21 14  12 21 50.589   +33 03 13.97  .09181 1.0738 146.5 21.7 .199  61
2023 03 21 15  12 22 02.372   +33 05 59.58  .09167 1.0736 146.4 21.7 .207  60
2023 03 21 16  12 22 14.203   +33 08 45.51  .09152 1.0735 146.3 21.7 .215  59
2023 03 21 17  12 22 26.082   +33 11 31.76  .09138 1.0733 146.3 21.7 .224  59
2023 03 21 18  12 22 38.010   +33 14 18.34  .09124 1.0731 146.2 21.7 .233  58
2023 03 21 19  12 22 49.986   +33 17 05.24  .09109 1.0730 146.1 21.7 .242  57
2023 03 21 20  12 23 02.012   +33 19 52.46  .09095 1.0728 146.1 21.7 .251  57
2023 03 21 21  12 23 14.086   +33 22 40.01  .09080 1.0726 146.0 21.7 .260  56
2023 03 21 22  12 23 26.210   +33 25 27.88  .09066 1.0725 145.9 21.7 .270  56
2023 03 21 23  12 23 38.384   +33 28 16.08  .09052 1.0723 145.9 21.7 .280  55
2023 03 22 00  12 23 50.608   +33 31 04.60  .09037 1.0721 145.8 21.7 .290  55
2023 03 22 01  12 24 02.882   +33 33 53.44  .09023 1.0720 145.7 21.7 .300  54
2023 03 22 02  12 24 15.207   +33 36 42.61  .09009 1.0718 145.7 21.7 .310  54
2023 03 22 03  12 24 27.582   +33 39 32.11  .08995 1.0717 145.6 21.7 .321  53
2023 03 22 04  12 24 40.009   +33 42 21.94  .08980 1.0715 145.6 21.7 .331  53
2023 03 22 05  12 24 52.488   +33 45 12.09  .08966 1.0713 145.5 21.7 .342  52
2023 03 22 06  12 25 05.018   +33 48 02.57  .08952 1.0712 145.4 21.7 .353  52
2023 03 22 07  12 25 17.600   +33 50 53.38  .08938 1.0710 145.4 21.7 .365  52
2023 03 22 08  12 25 30.235   +33 53 44.51  .08923 1.0708 145.3 21.7 .376  51
2023 03 22 09  12 25 42.922   +33 56 35.98  .08909 1.0707 145.2 21.7 .388  51